Voltar ao catálogo

COSMOS 2507

AtivoNavegaçãoPO
NORAD 40920·PAYLOAD·🇷🇺 Russia

Lançado Sep 23, 2015 de Plesetsk Cosmodrome

Loading…

Próximas Passagens (próximas 24 horas)

TLE

AtualizadoSource: Space-Track

Época: Sep 14, 2026, 13:56 UTC

1 40920U 15050A   26257.58103672 -.00000079  00000-0 -64075-3 0  9993
2 40920  82.4960  23.9964 0010455 151.2982 208.8675 12.42928662497965

Acompanhe COSMOS 2507 em tempo real com AllMySat

Download on the App Store